TimePST,TemperatureF,Dew PointF,Humidity,Sea Level PressureIn,VisibilityMPH,Wind Direction,Wind SpeedMPH,Gust SpeedMPH,PrecipitationIn,Events,Conditions,WindDirDegrees,DateUTC
12:15 AM,42.8,42.8,100,30.39,3.0,Calm,Calm,-,N/A,,Overcast,0,2011-11-28 08:15:00
12:35 AM,42.8,42.8,100,30.38,3.0,Calm,Calm,-,N/A,,Overcast,0,2011-11-28 08:35:00
12:55 AM,42.8,42.8,100,30.40,1.2,WNW,3.5,-,N/A,,Overcast,300,2011-11-28 08:55:00
1:15 AM,42.8,41.0,93,30.40,1.5,Calm,Calm,-,N/A,,Overcast,0,2011-11-28 09:15:00
1:35 AM,44.6,42.8,93,30.40,0.8,Calm,Calm,-,N/A,,Overcast,0,2011-11-28 09:35:00
1:55 AM,44.6,42.8,93,30.41,0.5,Calm,Calm,-,N/A,,Overcast,0,2011-11-28 09:55:00
2:15 AM,44.6,42.8,93,30.42,0.5,Calm,Calm,-,N/A,,Overcast,0,2011-11-28 10:15:00
2:35 AM,44.6,42.8,93,30.43,3.0,Calm,Calm,-,N/A,,Overcast,0,2011-11-28 10:35:00
2:55 AM,44.6,42.8,93,30.43,4.0,Calm,Calm,-,N/A,,Overcast,0,2011-11-28 10:55:00
3:15 AM,42.8,41.0,93,30.44,4.0,Calm,Calm,-,N/A,,Overcast,0,2011-11-28 11:15:00
3:35 AM,42.8,41.0,93,30.44,2.5,NNW,3.5,-,N/A,,Overcast,340,2011-11-28 11:35:00
3:55 AM,42.8,42.8,100,30.44,2.5,Calm,Calm,-,N/A,,Overcast,0,2011-11-28 11:55:00
4:35 AM,42.8,42.8,100,30.44,5.0,NNW,4.6,-,N/A,,Overcast,340,2011-11-28 12:35:00
4:55 AM,42.8,42.8,100,30.44,8.0,North,3.5,-,N/A,,Overcast,350,2011-11-28 12:55:00
5:15 AM,42.8,41.0,93,30.44,5.0,North,3.5,-,N/A,,Overcast,10,2011-11-28 13:15:00
5:35 AM,42.8,41.0,93,30.44,2.5,North,4.6,-,N/A,,Overcast,10,2011-11-28 13:35:00
5:55 AM,41.0,39.2,93,30.45,1.5,North,3.5,-,N/A,,Overcast,10,2011-11-28 13:55:00
6:15 AM,39.2,37.4,93,30.45,0.5,NNW,4.6,-,N/A,,Overcast,340,2011-11-28 14:15:00
6:35 AM,39.2,39.2,100,30.45,0.5,Calm,Calm,-,N/A,,Overcast,0,2011-11-28 14:35:00
6:55 AM,39.2,39.2,100,30.45,0.5,Calm,Calm,-,N/A,,Overcast,0,2011-11-28 14:55:00
7:15 AM,39.2,39.2,100,30.45,2.0,Calm,Calm,-,N/A,,Overcast,0,2011-11-28 15:15:00
7:35 AM,39.2,39.2,100,30.46,0.2,Calm,Calm,-,N/A,,Overcast,0,2011-11-28 15:35:00
7:55 AM,39.2,39.2,100,30.47,0.2,North,4.6,-,N/A,,Overcast,350,2011-11-28 15:55:00
8:15 AM,39.2,39.2,100,30.48,0.2,North,3.5,-,N/A,,Overcast,350,2011-11-28 16:15:00
8:35 AM,39.2,37.4,93,30.48,0.2,NNW,3.5,-,N/A,,Overcast,340,2011-11-28 16:35:00
8:55 AM,39.2,37.4,93,30.49,0.2,NNE,3.5,-,N/A,,Overcast,30,2011-11-28 16:55:00
9:15 AM,39.2,37.4,93,30.49,3.0,Calm,Calm,-,N/A,,Overcast,0,2011-11-28 17:15:00
9:35 AM,39.2,37.4,93,30.49,0.5,North,3.5,-,N/A,,Overcast,350,2011-11-28 17:35:00
9:55 AM,39.2,37.4,93,30.50,0.5,Calm,Calm,-,N/A,,Overcast,0,2011-11-28 17:55:00
10:15 AM,39.2,37.4,93,30.51,0.8,NNW,4.6,-,N/A,,Overcast,340,2011-11-28 18:15:00
10:35 AM,39.2,37.4,93,30.51,3.0,Calm,Calm,-,N/A,,Overcast,0,2011-11-28 18:35:00
11:15 AM,39.2,37.4,93,30.50,8.0,Calm,Calm,-,N/A,,Overcast,0,2011-11-28 19:15:00
11:35 AM,39.2,37.4,93,30.49,4.0,Calm,Calm,-,N/A,,Overcast,0,2011-11-28 19:35:00
11:55 AM,39.2,39.2,100,30.49,8.0,Calm,Calm,-,N/A,,Overcast,0,2011-11-28 19:55:00
12:15 PM,39.2,37.4,93,30.48,10.0,Calm,Calm,-,N/A,,Overcast,0,2011-11-28 20:15:00
12:35 PM,42.8,39.2,87,30.47,10.0,Calm,Calm,-,N/A,,Overcast,0,2011-11-28 20:35:00
12:55 PM,42.8,39.2,87,30.47,10.0,Calm,Calm,-,N/A,,Mostly Cloudy,0,2011-11-28 20:55:00
1:15 PM,42.8,39.2,87,30.46,10.0,Calm,Calm,-,N/A,,Scattered Clouds,0,2011-11-28 21:15:00
1:35 PM,44.6,41.0,87,30.46,10.0,Calm,Calm,-,N/A,,Partly Cloudy,0,2011-11-28 21:35:00
1:55 PM,44.6,39.2,81,30.45,10.0,Calm,Calm,-,N/A,,Clear,0,2011-11-28 21:55:00
2:15 PM,44.6,39.2,81,30.45,10.0,North,4.6,-,N/A,,Clear,350,2011-11-28 22:15:00
2:35 PM,46.4,39.2,76,30.44,10.0,North,5.8,-,N/A,,Clear,350,2011-11-28 22:35:00
2:55 PM,46.4,39.2,76,30.45,10.0,NNW,9.2,-,N/A,,Clear,340,2011-11-28 22:55:00
3:35 PM,44.6,39.2,81,30.46,10.0,NNW,5.8,-,N/A,,Clear,330,2011-11-28 23:35:00
3:55 PM,44.6,39.2,81,30.47,10.0,NNW,4.6,-,N/A,,Clear,330,2011-11-28 23:55:00
4:15 PM,42.8,39.2,87,30.47,10.0,NNW,5.8,-,N/A,,Clear,340,2011-11-29 00:15:00
4:35 PM,42.8,39.2,87,30.45,10.0,NNW,4.6,-,N/A,,Clear,340,2011-11-29 00:35:00
4:55 PM,42.8,37.4,81,30.45,10.0,Calm,Calm,-,N/A,,Clear,0,2011-11-29 00:55:00
5:15 PM,41.0,37.4,87,30.44,10.0,NNE,5.8,-,N/A,,Clear,20,2011-11-29 01:15:00
5:35 PM,41.0,37.4,87,30.45,10.0,NNE,3.5,-,N/A,,Clear,20,2011-11-29 01:35:00
6:15 PM,39.2,35.6,87,30.44,10.0,WNW,3.5,-,N/A,,Clear,300,2011-11-29 02:15:00
6:55 PM,37.4,35.6,93,30.44,10.0,Calm,Calm,-,N/A,,Clear,0,2011-11-29 02:55:00
7:15 PM,37.4,35.6,93,30.43,10.0,Calm,Calm,-,N/A,,Clear,0,2011-11-29 03:15:00
7:35 PM,35.6,33.8,93,30.42,10.0,Calm,Calm,-,N/A,,Clear,0,2011-11-29 03:35:00
7:55 PM,35.6,33.8,93,30.42,10.0,Calm,Calm,-,N/A,,Clear,0,2011-11-29 03:55:00
8:15 PM,35.6,33.8,93,30.43,10.0,Calm,Calm,-,N/A,,Clear,0,2011-11-29 04:15:00
8:35 PM,33.8,33.8,100,30.44,10.0,Calm,Calm,-,N/A,,Mostly Cloudy,0,2011-11-29 04:35:00
9:15 PM,37.4,35.6,93,30.44,10.0,NNW,8.1,-,N/A,,Overcast,340,2011-11-29 05:15:00
9:35 PM,37.4,35.6,93,30.44,10.0,NNW,4.6,-,N/A,,Overcast,340,2011-11-29 05:35:00
9:55 PM,37.4,35.6,93,30.44,10.0,Calm,Calm,-,N/A,,Overcast,0,2011-11-29 05:55:00
10:15 PM,37.4,35.6,93,30.44,10.0,NW,3.5,-,N/A,,Overcast,320,2011-11-29 06:15:00
10:35 PM,37.4,35.6,93,30.44,10.0,NNE,5.8,-,N/A,,Overcast,30,2011-11-29 06:35:00
10:55 PM,37.4,35.6,93,30.43,10.0,NNE,3.5,-,N/A,,Overcast,20,2011-11-29 06:55:00
11:15 PM,37.4,35.6,93,30.43,10.0,NNE,4.6,-,N/A,,Overcast,20,2011-11-29 07:15:00
11:35 PM,37.4,35.6,93,30.42,10.0,North,4.6,-,N/A,,Overcast,360,2011-11-29 07:35:00
11:55 PM,37.4,35.6,93,30.42,10.0,Calm,Calm,-,N/A,,Overcast,0,2011-11-29 07:55:00